• In Hungary
  • List of Countries
  • For 7 days
  • Water Temperature
  • Satellite Maps
  • Weather Map
  • News
  • Weather Widgets
  • user-avatar
    Login

    Hourly Weather Solovev (Staraya Buda)

    Today, 22 January, Monday

    Time Temperature Precipitation Wind Pressure Humidity
    00:00 -8°C° 0 mm 1 mps 749 mmHg 92%
    01:00 -8°C° 0 mm 1 mps 749 mmHg 93%
    02:00 -10°C° 0 mm 2 mps 750 mmHg 93%
    03:00 -10°C° 0 mm 2 mps 750 mmHg 93%
    04:00 -9°C° 0 mm 1 mps 750 mmHg 94%
    05:00 -9°C° 0 mm 1 mps 750 mmHg 94%
    06:00 -10°C° 0 mm 1 mps 750 mmHg 94%
    07:00 -10°C° 0 mm 1 mps 750 mmHg 94%
    08:00 -10°C° 0 mm 1 mps 751 mmHg 94%
    09:00 -9°C° 0 mm 1 mps 751 mmHg 92%
    10:00 -8°C° 0 mm 1 mps 751 mmHg 90%
    11:00 -7°C° 0 mm 1 mps 751 mmHg 88%
    12:00 -6°C° 0 mm 1 mps 751 mmHg 86%
    13:00 -6°C° 0 mm 1 mps 752 mmHg 85%
    14:00 -4°C° 0 mm 1 mps 752 mmHg 84%
    15:00 -6°C° 0 mm 1 mps 752 mmHg 86%
    16:00 -7°C° 0 mm 1 mps 752 mmHg 89%
    17:00 -8°C° 0 mm 0 mps 752 mmHg 91%
    18:00 -9°C° 0 mm 1 mps 752 mmHg 92%
    19:00 -9°C° 0 mm 1 mps 753 mmHg 92%
    20:00 -9°C° 0 mm 1 mps 753 mmHg 92%
    21:00 -9°C° 0 mm 1 mps 753 mmHg 92%
    22:00 -9°C° 0 mm 1 mps 753 mmHg 92%
    23:00 -10°C° 0 mm 1 mps 754 mmHg 92%

    Tomorrow, 23 January, Tuesday

    Time Temperature Precipitation Wind Pressure Humidity
    00:00 -10°C° 0 mm 1 mps 754 mmHg 92%
    01:00 -10°C° 0 mm 1 mps 754 mmHg 93%
    02:00 -10°C° 0 mm 1 mps 754 mmHg 93%
    03:00 -11°C° 0 mm 1 mps 755 mmHg 93%
    04:00 -11°C° 0 mm 1 mps 755 mmHg 94%
    05:00 -11°C° 0 mm 1 mps 755 mmHg 94%
    06:00 -11°C° 0 mm 1 mps 755 mmHg 94%
    07:00 -11°C° 0 mm 1 mps 756 mmHg 94%
    08:00 -12°C° 0 mm 1 mps 756 mmHg 94%
    09:00 -10°C° 0 mm 1 mps 756 mmHg 91%
    10:00 -9°C° 0 mm 1 mps 757 mmHg 89%
    11:00 -8°C° 0 mm 1 mps 757 mmHg 86%
    12:00 -7°C° 0 mm 1 mps 757 mmHg 85%
    13:00 -7°C° 0 mm 1 mps 757 mmHg 84%
    14:00 -6°C° 0 mm 1 mps 758 mmHg 84%
    15:00 -7°C° 0 mm 1 mps 758 mmHg 86%
    16:00 -9°C° 0 mm 2 mps 758 mmHg 88%
    17:00 -10°C° 0 mm 2 mps 759 mmHg 90%
    18:00 -10°C° 0 mm 2 mps 759 mmHg 89%
    19:00 -10°C° 0 mm 2 mps 759 mmHg 89%
    20:00 -12°C° 0 mm 2 mps 760 mmHg 89%
    21:00 -10°C° 0 mm 1 mps 760 mmHg 88%
    22:00 -10°C° 0 mm 1 mps 760 mmHg 87%
    23:00 -10°C° 0 mm 1 mps 761 mmHg 87%

    Day after tomorrow, 24 January, Wednesday

    Time Temperature Precipitation Wind Pressure Humidity
    00:00 -10°C° 0 mm 1 mps 761 mmHg 86%
    01:00 -11°C° 0 mm 1 mps 761 mmHg 86%
    02:00 -11°C° 0 mm 1 mps 761 mmHg 86%
    03:00 -11°C° 0 mm 1 mps 761 mmHg 86%
    04:00 -11°C° 0 mm 1 mps 761 mmHg 86%
    05:00 -11°C° 0 mm 1 mps 761 mmHg 85%
    06:00 -11°C° 0 mm 1 mps 762 mmHg 85%
    07:00 -11°C° 0 mm 1 mps 762 mmHg 85%
    08:00 -11°C° 0 mm 1 mps 762 mmHg 85%
    09:00 -12°C° 0 mm 2 mps 762 mmHg 83%
    10:00 -9°C° 0 mm 2 mps 762 mmHg 81%
    11:00 -8°C° 0 mm 2 mps 762 mmHg 79%
    12:00 -8°C° 0 mm 3 mps 762 mmHg 78%
    13:00 -8°C° 0 mm 3 mps 762 mmHg 77%
    14:00 -7°C° 0 mm 3 mps 761 mmHg 76%
    15:00 -8°C° 0 mm 3 mps 761 mmHg 78%
    16:00 -10°C° 0 mm 4 mps 761 mmHg 79%
    17:00 -11°C° 0 mm 4 mps 761 mmHg 81%
    18:00 -10°C° 0 mm 4 mps 761 mmHg 79%
    19:00 -10°C° 0 mm 4 mps 761 mmHg 78%
    20:00 -11°C° 0 mm 5 mps 761 mmHg 76%
    21:00 -10°C° 0 mm 5 mps 760 mmHg 75%
    22:00 -10°C° 0 mm 5 mps 760 mmHg 74%
    23:00 -10°C° 0 mm 5 mps 760 mmHg 73%

    25 January, Thursday

    Time Temperature Precipitation Wind Pressure Humidity
    00:00 -10°C° 0 mm 5 mps 760 mmHg 73%
    01:00 -10°C° 0 mm 5 mps 760 mmHg 73%
    02:00 -10°C° 0 mm 5 mps 759 mmHg 73%
    03:00 -10°C° 0 mm 5 mps 759 mmHg 72%
    04:00 -10°C° 0 mm 5 mps 759 mmHg 72%
    05:00 -10°C° 0 mm 5 mps 758 mmHg 72%
    06:00 -10°C° 0 mm 5 mps 758 mmHg 73%
    07:00 -10°C° 0 mm 5 mps 758 mmHg 74%
    08:00 -10°C° 0 mm 5 mps 758 mmHg 75%
    09:00 -8°C° 0 mm 5 mps 758 mmHg 75%
    10:00 -8°C° 0 mm 5 mps 758 mmHg 75%
    11:00 -8°C° 0 mm 5 mps 758 mmHg 76%
    12:00 -7°C° 0 mm 5 mps 758 mmHg 75%
    13:00 -7°C° 0 mm 5 mps 757 mmHg 74%
    14:00 -6°C° 0 mm 5 mps 757 mmHg 73%
    15:00 -6°C° 0 mm 5 mps 757 mmHg 73%
    16:00 -6°C° 0 mm 5 mps 757 mmHg 73%
    17:00 -7°C° 0 mm 5 mps 757 mmHg 73%
    18:00 -7°C° 0 mm 5 mps 757 mmHg 74%
    19:00 -7°C° 0 mm 5 mps 757 mmHg 74%
    20:00 -8°C° 0 mm 6 mps 757 mmHg 75%
    21:00 -8°C° 0 mm 5 mps 757 mmHg 75%
    22:00 -8°C° 0 mm 5 mps 757 mmHg 76%
    23:00 -8°C° 0 mm 5 mps 757 mmHg 76%

    26 January, Friday

    Time Temperature Precipitation Wind Pressure Humidity
    00:00 -10°C° 0 mm 5 mps 757 mmHg 75%
    01:00 -10°C° 0 mm 5 mps 757 mmHg 74%
    02:00 -10°C° 0 mm 5 mps 757 mmHg 74%
    03:00 -10°C° 0 mm 5 mps 757 mmHg 73%
    04:00 -10°C° 0 mm 5 mps 757 mmHg 73%
    05:00 -10°C° 0 mm 5 mps 757 mmHg 73%
    06:00 -10°C° 0 mm 5 mps 757 mmHg 72%
    07:00 -10°C° 0 mm 6 mps 757 mmHg 72%
    08:00 -10°C° 0 mm 6 mps 757 mmHg 72%
    09:00 -10°C° 0 mm 6 mps 757 mmHg 70%
    10:00 -9°C° 0 mm 6 mps 758 mmHg 68%
    11:00 -8°C° 0 mm 6 mps 758 mmHg 66%
    12:00 -8°C° 0 mm 6 mps 758 mmHg 65%
    13:00 -6°C° 0 mm 6 mps 757 mmHg 65%
    14:00 -6°C° 0 mm 6 mps 757 mmHg 64%
    15:00 -8°C° 0 mm 6 mps 757 mmHg 67%
    16:00 -7°C° 0 mm 5 mps 757 mmHg 69%
    17:00 -8°C° 0 mm 5 mps 757 mmHg 72%
    18:00 -8°C° 0 mm 5 mps 757 mmHg 74%
    19:00 -10°C° 0 mm 5 mps 758 mmHg 76%
    20:00 -10°C° 0 mm 5 mps 758 mmHg 79%
    21:00 -10°C° 0 mm 5 mps 758 mmHg 81%
    22:00 -10°C° 0 mm 5 mps 758 mmHg 83%
    23:00 -11°C° 0 mm 5 mps 758 mmHg 85%

    27 January, Saturday

    Time Temperature Precipitation Wind Pressure Humidity
    00:00 -11°C° 0 mm 5 mps 758 mmHg 86%
    01:00 -11°C° 0 mm 5 mps 758 mmHg 88%
    02:00 -11°C° 0 mm 5 mps 758 mmHg 89%
    03:00 -11°C° 0 mm 5 mps 758 mmHg 89%
    04:00 -11°C° 0 mm 5 mps 758 mmHg 90%
    05:00 -11°C° 0 mm 5 mps 758 mmHg 90%
    06:00 -11°C° 0 mm 5 mps 758 mmHg 90%
    07:00 -11°C° 0 mm 5 mps 758 mmHg 90%
    08:00 -9°C° 0 mm 4 mps 759 mmHg 90%
    09:00 -9°C° 0.1 mm 4 mps 759 mmHg 90%
    10:00 -8°C° 0.1 mm 5 mps 759 mmHg 89%
    11:00 -7°C° 0.1 mm 5 mps 759 mmHg 88%
    12:00 -7°C° 0 mm 4 mps 759 mmHg 88%
    13:00 -5°C° 0 mm 4 mps 759 mmHg 87%
    14:00 -5°C° 0 mm 4 mps 759 mmHg 87%
    15:00 -5°C° 0 mm 4 mps 759 mmHg 88%
    16:00 -5°C° 0 mm 4 mps 759 mmHg 89%
    17:00 -5°C° 0 mm 3 mps 760 mmHg 90%
    18:00 -5°C° 0 mm 4 mps 760 mmHg 91%
    19:00 -5°C° 0 mm 4 mps 760 mmHg 92%
    20:00 -5°C° 0 mm 4 mps 760 mmHg 92%
    21:00 -4°C° 0.2 mm 4 mps 760 mmHg 93%
    22:00 -4°C° 0.2 mm 4 mps 760 mmHg 94%
    23:00 -4°C° 0.2 mm 4 mps 760 mmHg 94%
    Show more